Weather History for Orlando International, FL

Change the Weather History Date:

Saturday, May 11, 2013

  Actual Average Record
Temperature  
Mean Temperature 79 °F 76 °F  
Max Temperature 90 °F 87 °F 96 °F (2011)
Min Temperature 67 °F 65 °F 47 °F (1923)
Degree Days  
Heating Degree Days 0 0  
Month to date heating degree days 0 0  
Since 1 July heating degree days 461 570  
Cooling Degree Days 14 11  
Month to date cooling degree days 93 112  
Year to date cooling degree days 629 533  
Growing Degree Days 28 (Base 50)    
Moisture  
Dew Point 68 °F    
Average Humidity 72    
Maximum Humidity 93    
Minimum Humidity 50    
Precipitation  
Precipitation 0.16 in 0.09 in 1.46 in (1929)
Month to date precipitation 2.06 0.82  
Year to date precipitation 7.88 12.00  
Sea Level Pressure  
Sea Level Pressure 30.03 in    
Wind  
Wind Speed 6 mph (WSW)    
Max Wind Speed 25 mph    
Max Gust Speed 32 mph    
Visibility 9 miles    
Events Rain , Thunderstorm    
T = Trace of Precipitation, MM = Missing Value Source: NWS Daily Summary

Daily Weather History Graph

Daily Weather History Graph

Search for Another Location

Airport:

Trip Planner

Search our weather history database for the weather conditions in past years. The results will help you decide how hot, cold, wet, or windy it might be!

Date:

Astronomy

May. 11, 2013 Rise Set
Actual Time 6:37 AM EDT 8:06 PM EDT
Civil Twilight 6:11 AM EDT 8:31 PM EDT
Nautical Twilight 5:41 AM EDT 9:02 PM EDT
Astronomical Twilight 5:09 AM EDT 9:34 PM EDT
Moon 7:46 AM EDT (5/11) 9:42 PM EDT (5/11)
Length of Visible Light 14h 20m
Length of Day
13h 29m
Waxing Crescent, 3% of the Moon is Illuminated
May 11
Waxing Crescent
May 18
First Quarter
May 25
Full
May 31
Last Quarter
Jun 8
New

Hourly Weather History & Observations

Time (EDT) Temp. Heat Index Dew Point Humidity Pressure Visibility Wind Dir Wind Speed Gust Speed Precip Events Conditions
12:53 AM 72.0 °F - 66.9 °F 84% 30.08 in 10.0 mi Calm Calm - N/A   Partly Cloudy
1:53 AM 71.1 °F - 68.0 °F 90% 30.05 in 10.0 mi South 5.8 mph - N/A   Partly Cloudy
2:53 AM 70.0 °F - 66.9 °F 90% 30.04 in 10.0 mi SSW 4.6 mph - N/A   Clear
3:53 AM 71.1 °F - 68.0 °F 90% 30.04 in 10.0 mi WSW 5.8 mph - N/A   Clear
4:53 AM 70.0 °F - 66.9 °F 90% 30.02 in 10.0 mi Calm Calm - N/A   Partly Cloudy
5:53 AM 68.0 °F - 66.9 °F 96% 30.03 in 8.0 mi SSW 3.5 mph - N/A   Scattered Clouds
6:53 AM 69.1 °F - 66.9 °F 93% 30.05 in 7.0 mi Calm Calm - N/A   Mostly Cloudy
7:53 AM 71.1 °F - 69.1 °F 93% 30.05 in 7.0 mi South 4.6 mph - N/A   Mostly Cloudy
8:53 AM 75.0 °F - 70.0 °F 84% 30.06 in 8.0 mi South 5.8 mph - N/A   Scattered Clouds
9:53 AM 81.0 °F 84.4 °F 70.0 °F 69% 30.06 in 10.0 mi South 6.9 mph - N/A   Partly Cloudy
10:53 AM 82.9 °F 87.0 °F 70.0 °F 65% 30.06 in 10.0 mi SSW 6.9 mph - N/A   Scattered Clouds
11:53 AM 82.9 °F 86.5 °F 69.1 °F 63% 30.04 in 10.0 mi WSW 9.2 mph - N/A   Mostly Cloudy
12:53 PM 88.0 °F 92.1 °F 69.1 °F 53% 30.04 in 10.0 mi WSW 11.5 mph - N/A   Scattered Clouds
1:53 PM 88.0 °F 90.7 °F 66.9 °F 49% 30.01 in 10.0 mi SW 9.2 mph - N/A   Partly Cloudy
2:53 PM 90.0 °F 93.6 °F 68.0 °F 48% 29.99 in 10.0 mi SW 9.2 mph 18.4 mph N/A   Scattered Clouds
3:36 PM 87.8 °F 90.4 °F 66.2 °F 49% 29.99 in 10.0 mi West 11.5 mph 17.3 mph N/A Thunderstorm Thunderstorm
3:42 PM 80.6 °F 84.6 °F 71.6 °F 74% 30.00 in 1.5 mi West 24.2 mph 28.8 mph 0.00 in Rain , Thunderstorm Light Thunderstorms and Rain
3:45 PM 77.0 °F - 71.6 °F 83% 30.00 in 1.0 mi WNW 23.0 mph 32.2 mph 0.02 in Rain , Thunderstorm Heavy Thunderstorms and Rain
3:49 PM 75.2 °F - 71.6 °F 89% 30.02 in 3.0 mi WNW 16.1 mph 32.2 mph 0.13 in Rain , Thunderstorm Heavy Thunderstorms and Rain
3:53 PM 75.0 °F - 71.1 °F 87% 30.02 in 3.0 mi NW 9.2 mph - 0.14 in Rain , Thunderstorm Light Thunderstorms and Rain
4:32 PM 78.8 °F - 75.2 °F 89% 29.99 in 10.0 mi Calm Calm - 0.02 in   Mostly Cloudy
4:53 PM 82.9 °F 88.0 °F 72.0 °F 69% 29.98 in 10.0 mi West 8.1 mph - 0.02 in   Mostly Cloudy
5:53 PM 82.0 °F 85.9 °F 70.0 °F 67% 29.99 in 10.0 mi West 11.5 mph - N/A   Mostly Cloudy
6:53 PM 81.0 °F 84.1 °F 69.1 °F 67% 30.00 in 10.0 mi West 5.8 mph - N/A   Mostly Cloudy
7:53 PM 81.0 °F 84.4 °F 70.0 °F 69% 30.01 in 10.0 mi WNW 12.7 mph - N/A   Mostly Cloudy
8:53 PM 75.9 °F - 62.1 °F 62% 30.04 in 10.0 mi NW 11.5 mph - N/A   Mostly Cloudy
9:53 PM 73.9 °F - 63.0 °F 68% 30.04 in 10.0 mi Calm Calm - N/A   Overcast
10:53 PM 71.1 °F - 64.9 °F 81% 30.04 in 10.0 mi Calm Calm - N/A   Mostly Cloudy
11:53 PM 69.1 °F - 64.0 °F 84% 30.04 in 10.0 mi South 6.9 mph - N/A   Scattered Clouds